Location: ???? ????
(41.4149°N, 22.8816°E)
Time: 14:57:29
(UTC+00:00)

NOSS 3-2 (C) - Pass Details

Date: 14 July 2020
Orbit: 798 x 1415 km, 63.4° (Epoch: 01 August)

Event Time Altitude Azimuth Distance (km) Brightness Sun altitude
Exits shadow 02:09:18 - 197° (SSW) 2,664 5.3 -9.7°
Reaches altitude 10° 02:09:58 10° 195° (SSW) 2,420 5.1 -9.6°
Maximum altitude 02:15:22 57° 118° (ESE) 1,037 3.8 -8.8°
Drops below altitude 10° 02:21:28 10° 42° (NE) 2,728 7.5 -8.0°
Sets 02:24:16 0° 38° (NE) 3,774 8.5 -7.5°
